Time,TemperatureF,DewpointF,PressureIn,WindDirection,WindDirectionDegrees,WindSpeedMPH,WindSpeedGustMPH,Humidity,HourlyPrecipIn,Conditions,Clouds,dailyrainin,SoftwareType,DateUTC
2013-09-06 00:02:00,68.2,58.0,30.17,NE,52,0.0,0.0,70,0.00,CLR,,0.00,WeatherDisplay:10.37,2013-09-06 05:02:00,
2013-09-06 00:07:00,68.1,57.9,30.17,NE,53,0.0,0.0,70,0.00,CLR,,0.00,WeatherDisplay:10.37,2013-09-06 05:07:00,
2013-09-06 00:12:00,68.0,57.8,30.17,NE,52,0.0,0.0,70,0.00,CLR,,0.00,WeatherDisplay:10.37,2013-09-06 05:12:00,
2013-09-06 00:17:00,67.9,57.8,30.17,NE,52,0.0,0.0,70,0.00,CLR,,0.00,WeatherDisplay:10.37,2013-09-06 05:17:00,
2013-09-06 00:22:00,67.8,57.7,30.17,NE,52,0.0,0.0,70,0.00,CLR,,0.00,WeatherDisplay:10.37,2013-09-06 05:22:00,
2013-09-06 00:27:00,67.6,57.5,30.17,NE,52,0.0,0.0,70,0.00,CLR,,0.00,WeatherDisplay:10.37,2013-09-06 05:27:00,
2013-09-06 00:33:00,67.5,57.4,30.17,NE,52,0.0,0.0,70,0.00,CLR,,0.00,WeatherDisplay:10.37,2013-09-06 05:33:00,
2013-09-06 00:38:00,67.3,57.2,30.17,NE,52,0.0,0.0,70,0.00,CLR,,0.00,WeatherDisplay:10.37,2013-09-06 05:38:00,
2013-09-06 00:43:00,67.1,57.0,30.17,NE,52,0.0,0.0,70,0.00,CLR,,0.00,WeatherDisplay:10.37,2013-09-06 05:43:00,
2013-09-06 00:48:00,66.9,56.8,30.17,NE,52,0.0,0.0,70,0.00,CLR,,0.00,WeatherDisplay:10.37,2013-09-06 05:48:00,
2013-09-06 00:53:00,66.8,56.7,30.17,NE,52,0.0,0.0,70,0.00,CLR,,0.00,WeatherDisplay:10.37,2013-09-06 05:53:00,
2013-09-06 00:58:00,66.7,56.6,30.17,NE,52,0.0,0.0,70,0.00,CLR,,0.00,WeatherDisplay:10.37,2013-09-06 05:58:00,
2013-09-06 01:03:00,66.6,56.5,30.17,NE,52,0.0,0.0,70,0.00,CLR,,0.00,WeatherDisplay:10.37,2013-09-06 06:03:00,
2013-09-06 01:08:00,66.5,56.4,30.17,NE,52,0.0,0.0,70,0.00,CLR,,0.00,WeatherDisplay:10.37,2013-09-06 06:08:00,
2013-09-06 01:13:00,66.3,56.2,30.17,NE,52,0.0,0.0,70,0.00,CLR,,0.00,WeatherDisplay:10.37,2013-09-06 06:13:00,
2013-09-06 01:18:00,66.1,56.0,30.17,NE,52,0.0,0.0,70,0.00,CLR,,0.00,WeatherDisplay:10.37,2013-09-06 06:18:00,
2013-09-06 01:23:00,66.0,55.9,30.17,NE,53,0.0,0.0,70,0.00,CLR,,0.00,WeatherDisplay:10.37,2013-09-06 06:23:00,
2013-09-06 01:28:00,65.9,55.4,30.17,NE,53,0.0,0.0,69,0.00,CLR,,0.00,WeatherDisplay:10.37,2013-09-06 06:28:00,
2013-09-06 01:33:00,65.7,55.2,30.17,NE,52,0.0,0.0,69,0.00,CLR,,0.00,WeatherDisplay:10.37,2013-09-06 06:33:00,
2013-09-06 01:38:00,65.5,55.1,30.17,NE,52,0.0,0.0,69,0.00,CLR,,0.00,WeatherDisplay:10.37,2013-09-06 06:38:00,
2013-09-06 01:43:00,65.4,55.0,30.17,NE,53,0.0,0.0,69,0.00,CLR,,0.00,WeatherDisplay:10.37,2013-09-06 06:43:00,
2013-09-06 01:48:00,65.2,54.8,30.17,NE,53,0.0,0.0,69,0.00,CLR,,0.00,WeatherDisplay:10.37,2013-09-06 06:48:00,
2013-09-06 01:53:00,65.1,54.7,30.17,NE,52,0.0,0.0,69,0.00,CLR,,0.00,WeatherDisplay:10.37,2013-09-06 06:53:00,
2013-09-06 01:58:00,65.0,54.6,30.17,NE,52,0.0,0.0,69,0.00,CLR,,0.00,WeatherDisplay:10.37,2013-09-06 06:58:00,
2013-09-06 02:03:00,64.8,54.4,30.17,NE,52,0.0,0.0,69,0.00,CLR,,0.00,WeatherDisplay:10.37,2013-09-06 07:03:00,
2013-09-06 02:08:00,64.7,53.9,30.17,NE,52,0.0,0.0,68,0.00,CLR,,0.00,WeatherDisplay:10.37,2013-09-06 07:08:00,
2013-09-06 02:13:00,64.5,53.7,30.16,NE,52,0.0,0.0,68,0.00,CLR,,0.00,WeatherDisplay:10.37,2013-09-06 07:13:00,
2013-09-06 02:18:00,64.5,53.7,30.17,NE,52,0.0,0.0,68,0.00,CLR,,0.00,WeatherDisplay:10.37,2013-09-06 07:18:00,
2013-09-06 02:23:00,64.3,53.5,30.16,NE,52,0.0,0.0,68,0.00,CLR,,0.00,WeatherDisplay:10.37,2013-09-06 07:23:00,
2013-09-06 02:28:00,64.2,53.4,30.16,NE,52,0.0,0.0,68,0.00,CLR,,0.00,WeatherDisplay:10.37,2013-09-06 07:28:00,
2013-09-06 02:33:00,64.1,53.3,30.16,NE,52,0.0,0.0,68,0.00,CLR,,0.00,WeatherDisplay:10.37,2013-09-06 07:33:00,
2013-09-06 02:38:00,64.0,53.2,30.16,NE,52,0.0,0.0,68,0.00,CLR,,0.00,WeatherDisplay:10.37,2013-09-06 07:38:00,
2013-09-06 02:43:00,63.9,53.1,30.16,NE,53,0.0,0.0,68,0.00,CLR,,0.00,WeatherDisplay:10.37,2013-09-06 07:43:00,
2013-09-06 02:48:00,63.8,53.0,30.16,NE,52,0.0,0.0,68,0.00,CLR,,0.00,WeatherDisplay:10.37,2013-09-06 07:48:00,
2013-09-06 02:53:00,63.7,52.5,30.16,NE,52,0.0,0.0,67,0.00,CLR,,0.00,WeatherDisplay:10.37,2013-09-06 07:53:00,
2013-09-06 02:58:00,63.5,52.3,30.16,NE,52,0.0,0.0,67,0.00,CLR,,0.00,WeatherDisplay:10.37,2013-09-06 07:58:00,
2013-09-06 03:03:00,63.5,52.3,30.16,NE,53,0.0,0.0,67,0.00,CLR,,0.00,WeatherDisplay:10.37,2013-09-06 08:03:00,
2013-09-06 03:08:00,63.5,51.9,30.16,NE,52,0.0,0.0,66,0.00,CLR,,0.00,WeatherDisplay:10.37,2013-09-06 08:08:00,
2013-09-06 03:13:00,63.4,51.8,30.16,NE,52,0.0,0.0,66,0.00,CLR,,0.00,WeatherDisplay:10.37,2013-09-06 08:13:00,
2013-09-06 03:18:00,63.5,51.9,30.16,NE,52,0.0,0.0,66,0.00,CLR,,0.00,WeatherDisplay:10.37,2013-09-06 08:18:00,
2013-09-06 03:23:00,63.4,51.8,30.16,NE,52,0.0,0.0,66,0.00,CLR,,0.00,WeatherDisplay:10.37,2013-09-06 08:23:00,
2013-09-06 03:28:00,63.4,51.8,30.16,NE,52,0.0,0.0,66,0.00,CLR,,0.00,WeatherDisplay:10.37,2013-09-06 08:28:00,
2013-09-06 03:33:00,63.4,51.8,30.16,NE,52,0.0,0.0,66,0.00,CLR,,0.00,WeatherDisplay:10.37,2013-09-06 08:33:00,
2013-09-06 03:38:00,63.4,51.8,30.16,NE,52,0.0,0.0,66,0.00,CLR,,0.00,WeatherDisplay:10.37,2013-09-06 08:38:00,
2013-09-06 03:43:00,63.3,51.7,30.16,NE,52,0.0,0.0,66,0.00,CLR,,0.00,WeatherDisplay:10.37,2013-09-06 08:43:00,
2013-09-06 03:48:00,63.2,51.6,30.16,NE,53,0.0,0.0,66,0.00,CLR,,0.00,WeatherDisplay:10.37,2013-09-06 08:48:00,
2013-09-06 03:53:00,63.0,51.5,30.16,NE,52,0.0,0.0,66,0.00,CLR,,0.00,WeatherDisplay:10.37,2013-09-06 08:53:00,
2013-09-06 03:58:00,62.8,51.3,30.16,NE,52,0.0,0.0,66,0.00,CLR,,0.00,WeatherDisplay:10.37,2013-09-06 08:58:00,
2013-09-06 04:03:00,62.7,51.2,30.16,NE,52,0.0,0.0,66,0.00,CLR,,0.00,WeatherDisplay:10.37,2013-09-06 09:03:00,
2013-09-06 04:08:00,62.6,51.1,30.16,NE,52,0.0,0.0,66,0.00,CLR,,0.00,WeatherDisplay:10.37,2013-09-06 09:08:00,
2013-09-06 04:13:00,62.5,51.0,30.16,NE,52,0.0,0.0,66,0.00,CLR,,0.00,WeatherDisplay:10.37,2013-09-06 09:13:00,
2013-09-06 04:18:00,62.5,51.0,30.16,NE,52,0.0,0.0,66,0.00,CLR,,0.00,WeatherDisplay:10.37,2013-09-06 09:18:00,
2013-09-06 04:23:00,62.4,50.5,30.16,NE,53,0.0,0.0,65,0.00,CLR,,0.00,WeatherDisplay:10.37,2013-09-06 09:23:00,
2013-09-06 04:28:00,62.3,50.4,30.16,NE,53,0.0,0.0,65,0.00,CLR,,0.00,WeatherDisplay:10.37,2013-09-06 09:28:00,
2013-09-06 04:33:00,62.3,50.4,30.16,NE,52,0.0,0.0,65,0.00,CLR,,0.00,WeatherDisplay:10.37,2013-09-06 09:33:00,
2013-09-06 04:38:00,62.2,50.3,30.16,NE,52,0.0,0.0,65,0.00,CLR,,0.00,WeatherDisplay:10.37,2013-09-06 09:38:00,
2013-09-06 04:43:00,62.2,50.3,30.16,NE,52,0.0,0.0,65,0.00,CLR,,0.00,WeatherDisplay:10.37,2013-09-06 09:43:00,
2013-09-06 04:48:00,62.1,50.2,30.16,NE,52,0.0,0.0,65,0.00,CLR,,0.00,WeatherDisplay:10.37,2013-09-06 09:48:00,
2013-09-06 04:53:00,62.1,50.6,30.16,NE,52,0.0,0.0,66,0.00,CLR,,0.00,WeatherDisplay:10.37,2013-09-06 09:53:00,
2013-09-06 04:58:00,62.1,50.6,30.16,NE,53,0.0,0.0,66,0.00,CLR,,0.00,WeatherDisplay:10.37,2013-09-06 09:58:00,
2013-09-06 05:03:00,62.0,50.5,30.16,NE,53,0.0,0.0,66,0.00,CLR,,0.00,WeatherDisplay:10.37,2013-09-06 10:03:00,
2013-09-06 05:08:00,62.0,50.5,30.16,NE,52,0.0,0.0,66,0.00,CLR,,0.00,WeatherDisplay:10.37,2013-09-06 10:08:00,
2013-09-06 05:13:00,62.0,50.5,30.16,NE,53,0.0,0.0,66,0.00,CLR,,0.00,WeatherDisplay:10.37,2013-09-06 10:13:00,
2013-09-06 05:18:00,61.9,50.4,30.16,NE,52,0.0,0.0,66,0.00,CLR,,0.00,WeatherDisplay:10.37,2013-09-06 10:18:00,
2013-09-06 05:23:00,61.9,50.4,30.16,NE,52,0.0,0.0,66,0.00,CLR,,0.00,WeatherDisplay:10.37,2013-09-06 10:23:00,
2013-09-06 05:28:00,61.8,50.3,30.16,NE,52,0.0,0.0,66,0.00,CLR,,0.00,WeatherDisplay:10.37,2013-09-06 10:28:00,
2013-09-06 05:33:00,61.8,50.3,30.16,NE,52,0.0,0.0,66,0.00,CLR,,0.00,WeatherDisplay:10.37,2013-09-06 10:33:00,
2013-09-06 05:38:00,61.8,50.3,30.16,NE,52,0.0,0.0,66,0.00,CLR,,0.00,WeatherDisplay:10.37,2013-09-06 10:38:00,
2013-09-06 05:43:00,61.7,50.2,30.16,NE,52,0.0,0.0,66,0.00,CLR,,0.00,WeatherDisplay:10.37,2013-09-06 10:43:00,
2013-09-06 05:48:00,61.7,50.2,30.16,NE,53,0.0,0.0,66,0.00,CLR,,0.00,WeatherDisplay:10.37,2013-09-06 10:48:00,
2013-09-06 05:53:00,61.6,50.1,30.16,NE,52,0.0,0.0,66,0.00,CLR,,0.00,WeatherDisplay:10.37,2013-09-06 10:53:00,
2013-09-06 05:58:00,61.6,50.5,30.16,NE,53,0.0,0.0,67,0.00,CLR,,0.00,WeatherDisplay:10.37,2013-09-06 10:58:00,
2013-09-06 06:03:00,61.5,50.4,30.16,NE,52,0.0,0.0,67,0.00,CLR,,0.00,WeatherDisplay:10.37,2013-09-06 11:03:00,
2013-09-06 06:08:00,61.5,50.4,30.16,NE,52,0.0,0.0,67,0.00,CLR,,0.00,WeatherDisplay:10.37,2013-09-06 11:08:00,
2013-09-06 06:13:00,61.5,50.4,30.17,NE,52,0.0,0.0,67,0.00,CLR,,0.00,WeatherDisplay:10.37,2013-09-06 11:13:00,
2013-09-06 06:18:00,61.4,50.3,30.17,NE,52,0.0,0.0,67,0.00,CLR,,0.00,WeatherDisplay:10.37,2013-09-06 11:18:00,
2013-09-06 06:23:00,61.3,50.2,30.17,NE,53,0.0,0.0,67,0.00,CLR,,0.00,WeatherDisplay:10.37,2013-09-06 11:23:00,
2013-09-06 06:28:00,61.2,50.2,30.16,NE,52,0.0,0.0,67,0.00,CLR,,0.00,WeatherDisplay:10.37,2013-09-06 11:28:00,
2013-09-06 06:33:00,61.1,50.1,30.17,NE,52,0.0,0.0,67,0.00,CLR,,0.00,WeatherDisplay:10.37,2013-09-06 11:33:00,
2013-09-06 06:38:00,61.1,50.1,30.17,NE,52,0.0,0.0,67,0.00,CLR,,0.00,WeatherDisplay:10.37,2013-09-06 11:38:00,
2013-09-06 06:43:00,61.0,50.0,30.17,NE,52,0.0,0.0,67,0.00,CLR,,0.00,WeatherDisplay:10.37,2013-09-06 11:43:00,
2013-09-06 06:48:00,61.0,50.0,30.17,NE,53,0.0,0.0,67,0.00,CLR,,0.00,WeatherDisplay:10.37,2013-09-06 11:48:00,
2013-09-06 06:53:00,61.0,50.0,30.17,NE,52,0.0,0.0,67,0.00,CLR,,0.00,WeatherDisplay:10.37,2013-09-06 11:53:00,
2013-09-06 06:58:00,61.2,50.2,30.17,NE,53,0.0,0.0,67,0.00,CLR,,0.00,WeatherDisplay:10.37,2013-09-06 11:58:00,
2013-09-06 07:03:00,61.4,50.3,30.17,NE,53,0.0,0.0,67,0.00,CLR,,0.00,WeatherDisplay:10.37,2013-09-06 12:03:00,
2013-09-06 07:08:00,61.5,50.4,30.17,NE,52,0.0,0.0,67,0.00,CLR,,0.00,WeatherDisplay:10.37,2013-09-06 12:08:00,
2013-09-06 07:13:00,61.7,51.0,30.17,East,93,0.0,0.0,68,0.00,CLR,,0.00,WeatherDisplay:10.37,2013-09-06 12:13:00,
2013-09-06 07:18:00,61.9,51.2,30.17,ENE,73,0.0,0.0,68,0.00,CLR,,0.00,WeatherDisplay:10.37,2013-09-06 12:18:00,
2013-09-06 07:23:00,62.0,51.3,30.17,ENE,73,0.0,0.0,68,0.00,CLR,,0.00,WeatherDisplay:10.37,2013-09-06 12:23:00,
2013-09-06 07:28:00,62.3,52.0,30.17,ENE,76,0.0,0.0,69,0.00,CLR,,0.00,WeatherDisplay:10.37,2013-09-06 12:28:00,
2013-09-06 07:33:00,62.5,52.2,30.17,ENE,76,0.0,0.0,69,0.00,CLR,,0.00,WeatherDisplay:10.37,2013-09-06 12:33:00,
2013-09-06 07:38:00,62.8,52.5,30.17,ENE,76,0.0,0.0,69,0.00,CLR,,0.00,WeatherDisplay:10.37,2013-09-06 12:38:00,
2013-09-06 07:43:00,63.1,53.2,30.17,ESE,114,0.0,0.0,70,0.00,CLR,,0.00,WeatherDisplay:10.37,2013-09-06 12:43:00,
2013-09-06 07:48:00,63.5,53.5,30.18,East,82,0.0,0.0,70,0.00,CLR,,0.00,WeatherDisplay:10.37,2013-09-06 12:48:00,
2013-09-06 07:53:00,63.8,54.2,30.18,ESE,117,3.5,3.5,71,0.00,CLR,,0.00,WeatherDisplay:10.37,2013-09-06 12:53:00,
2013-09-06 07:58:00,64.3,54.7,30.18,East,88,1.0,1.0,71,0.00,CLR,,0.00,WeatherDisplay:10.37,2013-09-06 12:58:00,
2013-09-06 08:03:00,64.7,55.1,30.18,ESE,118,0.0,0.0,71,0.00,CLR,,0.00,WeatherDisplay:10.37,2013-09-06 13:03:00,
2013-09-06 08:08:00,65.2,55.6,30.18,East,98,1.2,1.2,71,0.00,CLR,,0.00,WeatherDisplay:10.37,2013-09-06 13:08:00,
2013-09-06 08:13:00,65.6,56.3,30.18,East,94,3.5,3.5,72,0.00,CLR,,0.00,WeatherDisplay:10.37,2013-09-06 13:13:00,
2013-09-06 08:18:00,65.7,56.4,30.18,East,90,3.5,3.5,72,0.00,CLR,,0.00,WeatherDisplay:10.37,2013-09-06 13:18:00,
2013-09-06 08:23:00,65.9,56.6,30.18,ESE,111,1.2,1.2,72,0.00,CLR,,0.00,WeatherDisplay:10.37,2013-09-06 13:23:00,
2013-09-06 08:28:00,66.1,56.8,30.17,ESE,107,0.0,0.0,72,0.00,CLR,,0.00,WeatherDisplay:10.37,2013-09-06 13:28:00,
2013-09-06 08:33:00,66.5,57.2,30.17,ESE,115,3.5,3.5,72,0.00,CLR,,0.00,WeatherDisplay:10.37,2013-09-06 13:33:00,
2013-09-06 08:38:00,66.6,57.3,30.17,ESE,105,2.3,2.3,72,0.00,CLR,,0.00,WeatherDisplay:10.37,2013-09-06 13:38:00,
2013-09-06 08:43:00,67.1,57.8,30.17,ESE,109,0.0,0.0,72,0.00,CLR,,0.00,WeatherDisplay:10.37,2013-09-06 13:43:00,
2013-09-06 08:48:00,67.6,58.2,30.17,SSE,153,2.3,2.3,72,0.00,CLR,,0.00,WeatherDisplay:10.37,2013-09-06 13:48:00,
2013-09-06 08:53:00,68.1,58.3,30.17,SE,132,0.0,0.0,71,0.00,CLR,,0.00,WeatherDisplay:10.37,2013-09-06 13:53:00,
2013-09-06 08:58:00,68.4,58.6,30.17,SE,138,0.0,0.0,71,0.00,CLR,,0.00,WeatherDisplay:10.37,2013-09-06 13:58:00,
2013-09-06 09:03:00,68.7,58.9,30.17,ESE,102,0.0,0.0,71,0.00,CLR,,0.00,WeatherDisplay:10.37,2013-09-06 14:03:00,
2013-09-06 09:08:00,69.4,59.6,30.17,SE,126,0.0,0.0,71,0.00,CLR,,0.00,WeatherDisplay:10.37,2013-09-06 14:08:00,
2013-09-06 09:13:00,69.6,59.4,30.17,SE,138,0.0,0.0,70,0.00,CLR,,0.00,WeatherDisplay:10.37,2013-09-06 14:13:00,
2013-09-06 09:18:00,69.5,59.7,30.18,SSE,161,0.0,0.0,71,0.00,CLR,,0.00,WeatherDisplay:10.37,2013-09-06 14:18:00,
2013-09-06 09:23:00,69.5,59.3,30.18,South,172,3.5,3.5,70,0.00,CLR,,0.00,WeatherDisplay:10.37,2013-09-06 14:23:00,
2013-09-06 09:28:00,70.0,59.8,30.18,South,175,3.5,3.5,70,0.00,CLR,,0.00,WeatherDisplay:10.37,2013-09-06 14:28:00,
2013-09-06 09:33:00,70.1,59.5,30.18,South,191,4.6,4.6,69,0.00,CLR,,0.00,WeatherDisplay:10.37,2013-09-06 14:33:00,
2013-09-06 09:38:00,70.8,60.1,30.18,ESE,122,0.0,0.0,69,0.00,CLR,,0.00,WeatherDisplay:10.37,2013-09-06 14:38:00,
2013-09-06 09:43:00,71.1,60.0,30.18,ESE,108,0.0,0.0,68,0.00,CLR,,0.00,WeatherDisplay:10.37,2013-09-06 14:43:00,
2013-09-06 09:48:00,71.3,60.6,30.18,SE,144,0.0,0.0,69,0.00,CLR,,0.00,WeatherDisplay:10.37,2013-09-06 14:48:00,
2013-09-06 09:53:00,71.5,60.4,30.18,South,178,0.0,0.0,68,0.00,CLR,,0.00,WeatherDisplay:10.37,2013-09-06 14:53:00,
2013-09-06 09:58:00,71.7,60.6,30.18,South,180,1.2,1.2,68,0.00,CLR,,0.00,WeatherDisplay:10.37,2013-09-06 14:58:00,
2013-09-06 10:03:00,72.0,60.9,30.18,South,183,2.3,2.3,68,0.00,CLR,,0.00,WeatherDisplay:10.37,2013-09-06 15:03:00,
2013-09-06 10:08:00,72.6,61.0,30.18,South,189,0.0,0.0,67,0.00,CLR,,0.00,WeatherDisplay:10.37,2013-09-06 15:08:00,
2013-09-06 10:13:00,73.3,61.7,30.18,SW,215,2.3,2.3,67,0.00,CLR,,0.00,WeatherDisplay:10.37,2013-09-06 15:13:00,
2013-09-06 10:18:00,73.9,61.8,30.17,South,190,0.0,0.0,66,0.00,CLR,,0.00,WeatherDisplay:10.37,2013-09-06 15:18:00,
2013-09-06 10:23:00,74.0,62.3,30.17,ESE,107,0.0,0.0,67,0.00,CLR,,0.00,WeatherDisplay:10.37,2013-09-06 15:23:00,
2013-09-06 10:28:00,74.3,62.2,30.17,SSE,159,0.0,0.0,66,0.00,CLR,,0.00,WeatherDisplay:10.37,2013-09-06 15:28:00,
2013-09-06 10:33:00,74.2,62.1,30.17,SSW,201,1.2,1.2,66,0.00,CLR,,0.00,WeatherDisplay:10.37,2013-09-06 15:33:00,
2013-09-06 10:38:00,74.5,62.4,30.17,South,187,1.0,0.0,66,0.00,CLR,,0.00,WeatherDisplay:10.37,2013-09-06 15:38:00,
2013-09-06 10:43:00,74.4,62.3,30.17,SSW,196,1.2,1.2,66,0.00,CLR,,0.00,WeatherDisplay:10.37,2013-09-06 15:43:00,
2013-09-06 10:48:00,74.4,62.7,30.17,SSE,165,1.2,0.0,67,0.00,CLR,,0.00,WeatherDisplay:10.37,2013-09-06 15:48:00,
2013-09-06 10:53:00,75.1,63.4,30.17,SSE,155,1.2,0.0,67,0.00,CLR,,0.00,WeatherDisplay:10.37,2013-09-06 15:53:00,
2013-09-06 10:58:00,75.7,63.1,30.17,South,170,0.0,0.0,65,0.00,CLR,,0.00,WeatherDisplay:10.37,2013-09-06 15:58:00,
2013-09-06 11:03:00,76.0,63.8,30.17,SE,144,0.0,0.0,66,0.00,CLR,,0.00,WeatherDisplay:10.37,2013-09-06 16:03:00,
2013-09-06 11:08:00,76.3,64.1,30.17,SE,127,1.2,0.0,66,0.00,CLR,,0.00,WeatherDisplay:10.37,2013-09-06 16:08:00,
2013-09-06 11:13:00,76.9,64.7,30.16,SSW,195,2.3,2.3,66,0.00,CLR,,0.00,WeatherDisplay:10.37,2013-09-06 16:13:00,
2013-09-06 11:19:00,77.3,64.6,30.17,SSW,194,0.0,0.0,65,0.00,CLR,,0.00,WeatherDisplay:10.37,2013-09-06 16:19:00,
2013-09-06 11:24:00,77.5,64.8,30.17,South,171,0.0,0.0,65,0.00,CLR,,0.00,WeatherDisplay:10.37,2013-09-06 16:24:00,
2013-09-06 11:29:00,77.8,65.1,30.16,SSW,200,1.2,0.0,65,0.00,CLR,,0.00,WeatherDisplay:10.37,2013-09-06 16:29:00,
2013-09-06 11:34:00,78.1,65.4,30.16,ESE,111,1.2,1.2,65,0.00,CLR,,0.00,WeatherDisplay:10.37,2013-09-06 16:34:00,
2013-09-06 11:39:00,77.8,64.6,30.16,SE,146,1.2,0.0,64,0.00,CLR,,0.00,WeatherDisplay:10.37,2013-09-06 16:39:00,
2013-09-06 11:44:00,78.7,65.5,30.16,South,173,0.0,0.0,64,0.00,CLR,,0.00,WeatherDisplay:10.37,2013-09-06 16:44:00,
2013-09-06 11:49:00,78.9,65.7,30.16,South,173,0.0,0.0,64,0.00,CLR,,0.00,WeatherDisplay:10.37,2013-09-06 16:49:00,
2013-09-06 11:54:00,79.4,65.7,30.16,ESE,109,1.2,0.0,63,0.00,CLR,,0.00,WeatherDisplay:10.37,2013-09-06 16:54:00,
2013-09-06 11:59:00,79.8,66.1,30.15,SSE,153,0.0,0.0,63,0.00,CLR,,0.00,WeatherDisplay:10.37,2013-09-06 16:59:00,
2013-09-06 12:04:00,79.4,65.7,30.15,SSE,159,1.2,0.0,63,0.00,CLR,,0.00,WeatherDisplay:10.37,2013-09-06 17:04:00,
2013-09-06 12:09:00,79.6,65.9,30.15,ESE,118,0.0,0.0,63,0.00,CLR,,0.00,WeatherDisplay:10.37,2013-09-06 17:09:00,
2013-09-06 12:14:00,79.9,66.2,30.15,SSE,155,0.0,0.0,63,0.00,CLR,,0.00,WeatherDisplay:10.37,2013-09-06 17:14:00,
2013-09-06 12:19:00,79.9,66.2,30.15,SSE,159,0.0,0.0,63,0.00,CLR,,0.00,WeatherDisplay:10.37,2013-09-06 17:19:00,
2013-09-06 12:24:00,80.2,66.5,30.15,South,176,0.0,0.0,63,0.00,CLR,,0.00,WeatherDisplay:10.37,2013-09-06 17:24:00,
2013-09-06 12:29:00,80.8,66.6,30.14,East,101,0.0,0.0,62,0.00,CLR,,0.00,WeatherDisplay:10.37,2013-09-06 17:29:00,
2013-09-06 12:34:00,81.4,67.1,30.14,ESE,113,1.2,0.0,62,0.00,CLR,,0.00,WeatherDisplay:10.37,2013-09-06 17:34:00,
2013-09-06 12:39:00,81.7,66.9,30.14,ESE,119,0.0,0.0,61,0.00,CLR,,0.00,WeatherDisplay:10.37,2013-09-06 17:39:00,
2013-09-06 12:44:00,81.8,67.0,30.14,ESE,102,3.5,3.5,61,0.00,CLR,,0.00,WeatherDisplay:10.37,2013-09-06 17:44:00,
2013-09-06 12:49:00,81.1,66.8,30.14,SE,138,0.0,0.0,62,0.00,CLR,,0.00,WeatherDisplay:10.37,2013-09-06 17:49:00,
2013-09-06 12:54:00,81.3,67.5,30.14,SE,138,0.0,0.0,63,0.00,CLR,,0.00,WeatherDisplay:10.37,2013-09-06 17:54:00,
2013-09-06 12:59:00,81.6,67.8,30.14,SE,125,0.0,0.0,63,0.00,CLR,,0.00,WeatherDisplay:10.37,2013-09-06 17:59:00,
2013-09-06 13:04:00,81.9,67.1,30.14,WSW,237,0.0,0.0,61,0.00,CLR,,0.00,WeatherDisplay:10.37,2013-09-06 18:04:00,
2013-09-06 13:09:00,82.4,68.1,30.13,WSW,237,0.0,0.0,62,0.00,CLR,,0.00,WeatherDisplay:10.37,2013-09-06 18:09:00,
2013-09-06 13:14:00,82.3,67.5,30.14,SSW,202,3.5,3.5,61,0.00,CLR,,0.00,WeatherDisplay:10.37,2013-09-06 18:14:00,
2013-09-06 13:19:00,82.1,67.8,30.13,SE,146,0.0,0.0,62,0.00,CLR,,0.00,WeatherDisplay:10.37,2013-09-06 18:19:00,
2013-09-06 13:24:00,82.4,67.6,30.13,SW,216,3.5,3.5,61,0.00,CLR,,0.00,WeatherDisplay:10.37,2013-09-06 18:24:00,
2013-09-06 13:29:00,82.6,67.8,30.13,SSE,157,0.0,0.0,61,0.00,CLR,,0.00,WeatherDisplay:10.37,2013-09-06 18:29:00,
2013-09-06 13:34:00,83.1,68.3,30.12,SE,125,1.2,1.2,61,0.00,CLR,,0.00,WeatherDisplay:10.37,2013-09-06 18:34:00,
2013-09-06 13:39:00,83.3,68.0,30.12,SE,125,0.0,0.0,60,0.00,CLR,,0.00,WeatherDisplay:10.37,2013-09-06 18:39:00,
2013-09-06 13:44:00,83.1,67.8,30.12,South,186,0.0,0.1,60,0.00,CLR,,0.00,WeatherDisplay:10.37,2013-09-06 18:44:00,
2013-09-06 13:49:00,82.9,67.6,30.12,SSW,199,0.0,0.0,60,0.00,CLR,,0.00,WeatherDisplay:10.37,2013-09-06 18:49:00,
2013-09-06 13:54:00,83.3,68.0,30.11,SSW,208,0.0,0.0,60,0.00,CLR,,0.00,WeatherDisplay:10.37,2013-09-06 18:54:00,
2013-09-06 13:59:00,83.9,68.0,30.11,ESE,118,0.0,0.0,59,0.00,CLR,,0.00,WeatherDisplay:10.37,2013-09-06 18:59:00,
2013-09-06 14:04:00,84.0,68.6,30.11,ESE,123,0.0,0.0,60,0.00,CLR,,0.00,WeatherDisplay:10.37,2013-09-06 19:04:00,
2013-09-06 14:09:00,84.0,68.1,30.11,ESE,121,1.0,0.0,59,0.00,CLR,,0.00,WeatherDisplay:10.37,2013-09-06 19:09:00,
2013-09-06 14:14:00,83.6,67.8,30.11,SSE,167,1.2,0.0,59,0.00,CLR,,0.00,WeatherDisplay:10.37,2013-09-06 19:14:00,
2013-09-06 14:19:00,83.4,67.6,30.11,East,86,0.0,0.0,59,0.00,CLR,,0.00,WeatherDisplay:10.37,2013-09-06 19:19:00,
2013-09-06 14:24:00,83.9,68.5,30.10,East,101,0.0,0.0,60,0.00,CLR,,0.00,WeatherDisplay:10.37,2013-09-06 19:24:00,
2013-09-06 14:29:00,84.6,68.2,30.10,South,175,2.3,2.3,58,0.00,CLR,,0.00,WeatherDisplay:10.37,2013-09-06 19:29:00,
2013-09-06 14:34:00,84.2,68.3,30.10,SSE,161,1.2,0.0,59,0.00,CLR,,0.00,WeatherDisplay:10.37,2013-09-06 19:34:00,
2013-09-06 14:39:00,83.9,68.0,30.10,SE,144,1.2,0.0,59,0.00,CLR,,0.00,WeatherDisplay:10.37,2013-09-06 19:39:00,
2013-09-06 14:44:00,84.0,68.1,30.10,SSE,149,3.5,3.5,59,0.00,CLR,,0.00,WeatherDisplay:10.37,2013-09-06 19:44:00,
2013-09-06 14:49:00,83.6,67.8,30.09,South,182,3.5,3.5,59,0.00,CLR,,0.00,WeatherDisplay:10.37,2013-09-06 19:49:00,
2013-09-06 14:54:00,83.3,68.4,30.09,SE,130,0.0,0.0,61,0.00,CLR,,0.00,WeatherDisplay:10.37,2013-09-06 19:54:00,
2013-09-06 14:59:00,83.5,67.7,30.09,ESE,117,1.2,0.0,59,0.00,CLR,,0.00,WeatherDisplay:10.37,2013-09-06 19:59:00,
2013-09-06 15:04:00,83.8,67.9,30.09,SSE,168,1.2,0.0,59,0.00,CLR,,0.00,WeatherDisplay:10.37,2013-09-06 20:04:00,
2013-09-06 15:09:00,83.5,67.7,30.09,ESE,105,0.0,0.1,59,0.00,CLR,,0.00,WeatherDisplay:10.37,2013-09-06 20:09:00,
2013-09-06 15:14:00,83.4,68.1,30.08,East,90,3.0,3.0,60,0.00,CLR,,0.00,WeatherDisplay:10.37,2013-09-06 20:14:00,
2013-09-06 15:19:00,83.9,68.5,30.08,SE,130,3.5,3.5,60,0.00,CLR,,0.00,WeatherDisplay:10.37,2013-09-06 20:19:00,
2013-09-06 15:24:00,84.4,68.5,30.08,SSE,156,3.5,3.5,59,0.00,CLR,,0.00,WeatherDisplay:10.37,2013-09-06 20:24:00,
2013-09-06 15:29:00,84.2,67.8,30.08,South,181,3.5,0.0,58,0.00,CLR,,0.00,WeatherDisplay:10.37,2013-09-06 20:29:00,
2013-09-06 15:34:00,84.4,68.0,30.08,ESE,110,1.2,1.2,58,0.00,CLR,,0.00,WeatherDisplay:10.37,2013-09-06 20:34:00,
2013-09-06 15:39:00,84.7,68.3,30.08,ESE,117,0.0,0.0,58,0.00,CLR,,0.00,WeatherDisplay:10.37,2013-09-06 20:39:00,
2013-09-06 15:44:00,85.0,68.1,30.07,SSE,163,3.5,3.5,57,0.00,CLR,,0.00,WeatherDisplay:10.37,2013-09-06 20:44:00,
2013-09-06 15:49:00,84.7,68.3,30.07,SSE,155,0.0,0.0,58,0.00,CLR,,0.00,WeatherDisplay:10.37,2013-09-06 20:49:00,
2013-09-06 15:54:00,84.4,67.5,30.07,SSW,195,0.0,0.0,57,0.00,CLR,,0.00,WeatherDisplay:10.37,2013-09-06 20:54:00,
2013-09-06 15:59:00,84.5,68.1,30.07,South,191,1.0,1.0,58,0.00,CLR,,0.00,WeatherDisplay:10.37,2013-09-06 20:59:00,
2013-09-06 16:04:00,84.2,67.3,30.07,SSW,207,0.0,0.0,57,0.00,CLR,,0.00,WeatherDisplay:10.37,2013-09-06 21:04:00,
2013-09-06 16:09:00,84.5,68.1,30.07,SSW,205,0.0,0.0,58,0.00,CLR,,0.00,WeatherDisplay:10.37,2013-09-06 21:09:00,
2013-09-06 16:14:00,84.4,67.5,30.07,SSW,209,0.0,0.0,57,0.00,CLR,,0.00,WeatherDisplay:10.37,2013-09-06 21:14:00,
2013-09-06 16:19:00,84.7,67.8,30.07,East,94,0.0,0.0,57,0.00,CLR,,0.00,WeatherDisplay:10.37,2013-09-06 21:19:00,
2013-09-06 16:24:00,84.3,67.9,30.06,ESE,105,0.0,0.1,58,0.00,CLR,,0.00,WeatherDisplay:10.37,2013-09-06 21:24:00,
2013-09-06 16:29:00,83.9,68.0,30.06,SE,144,0.0,0.1,59,0.00,CLR,,0.00,WeatherDisplay:10.37,2013-09-06 21:29:00,
2013-09-06 16:34:00,83.9,68.0,30.05,ESE,119,0.0,0.0,59,0.00,CLR,,0.00,WeatherDisplay:10.37,2013-09-06 21:34:00,
2013-09-06 16:39:00,84.5,68.6,30.05,SE,146,0.0,0.0,59,0.00,CLR,,0.00,WeatherDisplay:10.37,2013-09-06 21:39:00,
2013-09-06 16:44:00,84.8,68.4,30.05,SSE,165,1.2,0.0,58,0.00,CLR,,0.00,WeatherDisplay:10.37,2013-09-06 21:44:00,
2013-09-06 16:49:00,84.4,68.0,30.05,SE,134,0.0,0.0,58,0.00,CLR,,0.00,WeatherDisplay:10.37,2013-09-06 21:49:00,
2013-09-06 16:54:00,84.5,68.1,30.05,SSE,155,0.0,0.1,58,0.00,CLR,,0.00,WeatherDisplay:10.37,2013-09-06 21:54:00,
2013-09-06 16:59:00,84.6,68.2,30.05,SSE,156,0.0,0.0,58,0.00,CLR,,0.00,WeatherDisplay:10.37,2013-09-06 21:59:00,
2013-09-06 17:04:00,84.4,68.0,30.05,SSE,167,1.2,0.0,58,0.00,CLR,,0.00,WeatherDisplay:10.37,2013-09-06 22:04:00,
2013-09-06 17:09:00,84.4,68.0,30.05,South,184,3.5,0.0,58,0.00,CLR,,0.00,WeatherDisplay:10.37,2013-09-06 22:09:00,
2013-09-06 17:14:00,84.2,67.8,30.05,South,184,0.0,0.0,58,0.00,CLR,,0.00,WeatherDisplay:10.37,2013-09-06 22:14:00,
2013-09-06 17:19:00,84.0,67.6,30.05,South,183,0.0,0.0,58,0.00,CLR,,0.00,WeatherDisplay:10.37,2013-09-06 22:19:00,
2013-09-06 17:24:00,84.0,68.1,30.05,ESE,119,1.2,0.0,59,0.00,CLR,,0.00,WeatherDisplay:10.37,2013-09-06 22:24:00,
2013-09-06 17:29:00,84.2,68.3,30.05,ESE,122,0.0,0.0,59,0.00,CLR,,0.00,WeatherDisplay:10.37,2013-09-06 22:29:00,
2013-09-06 17:34:00,84.1,68.2,30.05,ESE,106,0.0,0.0,59,0.00,CLR,,0.00,WeatherDisplay:10.37,2013-09-06 22:34:00,
2013-09-06 17:39:00,83.8,67.9,30.05,ESE,104,0.0,0.0,59,0.00,CLR,,0.00,WeatherDisplay:10.37,2013-09-06 22:39:00,
2013-09-06 17:44:00,83.6,68.2,30.05,ESE,108,0.0,0.0,60,0.00,CLR,,0.00,WeatherDisplay:10.37,2013-09-06 22:44:00,
2013-09-06 17:49:00,83.5,68.2,30.05,ESE,117,0.0,0.0,60,0.00,CLR,,0.00,WeatherDisplay:10.37,2013-09-06 22:49:00,
2013-09-06 17:54:00,83.3,68.4,30.05,ESE,121,0.0,0.0,61,0.00,CLR,,0.00,WeatherDisplay:10.37,2013-09-06 22:54:00,
2013-09-06 17:59:00,83.2,68.8,30.05,ESE,120,0.0,0.0,62,0.00,CLR,,0.00,WeatherDisplay:10.37,2013-09-06 22:59:00,
2013-09-06 18:04:00,83.0,68.6,30.05,ESE,119,0.0,0.0,62,0.00,CLR,,0.00,WeatherDisplay:10.37,2013-09-06 23:04:00,
2013-09-06 18:09:00,82.9,69.0,30.05,ESE,119,0.0,0.0,63,0.00,CLR,,0.00,WeatherDisplay:10.37,2013-09-06 23:09:00,
2013-09-06 18:14:00,82.8,68.4,30.05,ESE,120,0.0,0.0,62,0.00,CLR,,0.00,WeatherDisplay:10.37,2013-09-06 23:14:00,
2013-09-06 18:19:00,82.7,68.8,30.05,ESE,119,0.0,0.0,63,0.00,CLR,,0.00,WeatherDisplay:10.37,2013-09-06 23:19:00,
2013-09-06 18:24:00,82.7,69.3,30.05,ESE,120,0.0,0.0,64,0.00,CLR,,0.00,WeatherDisplay:10.37,2013-09-06 23:24:00,
2013-09-06 18:29:00,82.7,69.3,30.04,ESE,120,0.0,0.0,64,0.00,CLR,,0.00,WeatherDisplay:10.37,2013-09-06 23:29:00,
2013-09-06 18:34:00,82.4,69.4,30.04,ESE,120,0.0,0.0,65,0.00,CLR,,0.00,WeatherDisplay:10.37,2013-09-06 23:34:00,
2013-09-06 18:39:00,82.0,70.0,30.04,ESE,119,0.0,0.0,67,0.00,CLR,,0.00,WeatherDisplay:10.37,2013-09-06 23:39:00,
2013-09-06 18:44:00,81.7,69.7,30.04,ESE,120,0.0,0.0,67,0.00,CLR,,0.00,WeatherDisplay:10.37,2013-09-06 23:44:00,
2013-09-06 18:49:00,81.3,69.7,30.04,ESE,119,0.0,0.0,68,0.00,CLR,,0.00,WeatherDisplay:10.37,2013-09-06 23:49:00,
2013-09-06 18:54:00,81.0,69.4,30.04,ESE,120,0.0,0.0,68,0.00,CLR,,0.00,WeatherDisplay:10.37,2013-09-06 23:54:00,
2013-09-06 18:59:00,80.6,69.5,30.04,ESE,120,0.0,0.0,69,0.00,CLR,,0.00,WeatherDisplay:10.37,2013-09-06 23:59:00,
2013-09-06 19:04:00,80.3,69.2,30.04,ESE,120,0.0,0.0,69,0.00,CLR,,0.00,WeatherDisplay:10.37,2013-09-07 00:04:00,
2013-09-06 19:09:00,80.0,69.3,30.04,ESE,119,0.0,0.0,70,0.00,CLR,,0.00,WeatherDisplay:10.37,2013-09-07 00:09:00,
2013-09-06 19:14:00,79.6,69.0,30.04,ESE,120,0.0,0.0,70,0.00,CLR,,0.00,WeatherDisplay:10.37,2013-09-07 00:14:00,
2013-09-06 19:19:00,79.3,68.7,30.04,ESE,120,0.0,0.0,70,0.00,CLR,,0.00,WeatherDisplay:10.37,2013-09-07 00:19:00,
2013-09-06 19:24:00,78.9,68.7,30.04,ESE,119,0.0,0.0,71,0.00,CLR,,0.00,WeatherDisplay:10.37,2013-09-07 00:24:00,
2013-09-06 19:29:00,78.7,68.5,30.04,ESE,120,0.0,0.0,71,0.00,CLR,,0.00,WeatherDisplay:10.37,2013-09-07 00:29:00,
2013-09-06 19:34:00,78.2,68.0,30.04,ESE,120,0.0,0.0,71,0.00,CLR,,0.00,WeatherDisplay:10.37,2013-09-07 00:34:00,
2013-09-06 19:39:00,77.8,67.6,30.04,ESE,119,0.0,0.0,71,0.00,CLR,,0.00,WeatherDisplay:10.37,2013-09-07 00:39:00,
2013-09-06 19:44:00,77.3,67.2,30.04,ESE,120,0.0,0.0,71,0.00,CLR,,0.00,WeatherDisplay:10.37,2013-09-07 00:44:00,
2013-09-06 19:49:00,76.9,66.8,30.04,ESE,120,0.0,0.0,71,0.00,CLR,,0.00,WeatherDisplay:10.37,2013-09-07 00:49:00,
2013-09-06 19:54:00,76.6,66.5,30.04,ESE,119,0.0,0.0,71,0.00,CLR,,0.00,WeatherDisplay:10.37,2013-09-07 00:54:00,
2013-09-06 19:59:00,76.5,66.4,30.04,ESE,119,0.0,0.0,71,0.00,CLR,,0.00,WeatherDisplay:10.37,2013-09-07 00:59:00,
2013-09-06 20:04:00,76.4,66.3,30.05,ESE,120,0.0,0.0,71,0.00,CLR,,0.00,WeatherDisplay:10.37,2013-09-07 01:04:00,
2013-09-06 20:09:00,76.3,66.2,30.05,ESE,120,0.0,0.0,71,0.00,CLR,,0.00,WeatherDisplay:10.37,2013-09-07 01:09:00,
2013-09-06 20:14:00,76.2,66.1,30.05,ESE,120,0.0,0.0,71,0.00,CLR,,0.00,WeatherDisplay:10.37,2013-09-07 01:14:00,
2013-09-06 20:19:00,76.0,65.9,30.05,ESE,120,0.0,0.0,71,0.00,CLR,,0.00,WeatherDisplay:10.37,2013-09-07 01:19:00,
2013-09-06 20:24:00,75.8,65.7,30.05,ESE,120,0.0,0.0,71,0.00,CLR,,0.00,WeatherDisplay:10.37,2013-09-07 01:24:00,
2013-09-06 20:29:00,75.5,65.4,30.05,ESE,119,0.0,0.0,71,0.00,CLR,,0.00,WeatherDisplay:10.37,2013-09-07 01:29:00,
2013-09-06 20:34:00,75.3,65.2,30.05,ESE,120,0.0,0.0,71,0.00,CLR,,0.00,WeatherDisplay:10.37,2013-09-07 01:34:00,
2013-09-06 20:39:00,75.1,65.1,30.05,ESE,119,0.0,0.0,71,0.00,CLR,,0.00,WeatherDisplay:10.37,2013-09-07 01:39:00,
2013-09-06 20:44:00,75.0,64.5,30.05,ESE,119,0.0,0.0,70,0.00,CLR,,0.00,WeatherDisplay:10.37,2013-09-07 01:44:00,
2013-09-06 20:49:00,74.9,64.5,30.05,ESE,120,0.0,0.0,70,0.00,CLR,,0.00,WeatherDisplay:10.37,2013-09-07 01:49:00,
2013-09-06 20:54:00,74.8,64.4,30.05,ESE,120,0.0,0.0,70,0.00,CLR,,0.00,WeatherDisplay:10.37,2013-09-07 01:54:00,
2013-09-06 20:59:00,74.6,64.2,30.05,ESE,120,0.0,0.0,70,0.00,CLR,,0.00,WeatherDisplay:10.37,2013-09-07 01:59:00,
2013-09-06 21:04:00,74.6,64.2,30.05,ESE,120,0.0,0.0,70,0.00,CLR,,0.00,WeatherDisplay:10.37,2013-09-07 02:04:00,
2013-09-06 21:09:00,74.5,64.1,30.05,ESE,120,0.0,0.0,70,0.00,CLR,,0.00,WeatherDisplay:10.37,2013-09-07 02:09:00,
2013-09-06 21:14:00,74.3,63.9,30.05,ESE,119,0.0,0.0,70,0.00,CLR,,0.00,WeatherDisplay:10.37,2013-09-07 02:14:00,
2013-09-06 21:19:00,74.1,63.7,30.05,ESE,120,0.0,0.0,70,0.00,CLR,,0.00,WeatherDisplay:10.37,2013-09-07 02:19:00,
2013-09-06 21:24:00,74.0,63.6,30.05,ESE,120,0.0,0.0,70,0.00,CLR,,0.00,WeatherDisplay:10.37,2013-09-07 02:24:00,
2013-09-06 21:30:00,73.8,63.4,30.05,ESE,120,0.0,0.0,70,0.00,CLR,,0.00,WeatherDisplay:10.37,2013-09-07 02:30:00,
2013-09-06 21:35:00,73.5,63.1,30.05,ESE,120,0.0,0.0,70,0.00,CLR,,0.00,WeatherDisplay:10.37,2013-09-07 02:35:00,
2013-09-06 21:40:00,73.3,62.9,30.05,ESE,119,0.0,0.0,70,0.00,CLR,,0.00,WeatherDisplay:10.37,2013-09-07 02:40:00,
2013-09-06 21:45:00,73.3,62.5,30.05,ESE,120,0.0,0.0,69,0.00,CLR,,0.00,WeatherDisplay:10.37,2013-09-07 02:45:00,
2013-09-06 21:50:00,73.2,62.4,30.05,ESE,120,0.0,0.0,69,0.00,CLR,,0.00,WeatherDisplay:10.37,2013-09-07 02:50:00,
2013-09-06 21:55:00,73.1,62.3,30.05,ESE,119,0.0,0.0,69,0.00,CLR,,0.00,WeatherDisplay:10.37,2013-09-07 02:55:00,
2013-09-06 22:00:00,72.9,62.1,30.05,ESE,120,0.0,0.0,69,0.00,CLR,,0.00,WeatherDisplay:10.37,2013-09-07 03:00:00,
2013-09-06 22:05:00,72.7,61.9,30.05,ESE,120,0.0,0.0,69,0.00,CLR,,0.00,WeatherDisplay:10.37,2013-09-07 03:05:00,
2013-09-06 22:10:00,72.4,61.7,30.04,ESE,119,0.0,0.0,69,0.00,CLR,,0.00,WeatherDisplay:10.37,2013-09-07 03:10:00,
2013-09-06 22:15:00,72.1,61.4,30.04,ESE,119,0.0,0.0,69,0.00,CLR,,0.00,WeatherDisplay:10.37,2013-09-07 03:15:00,
2013-09-06 22:20:00,71.9,61.2,30.04,ESE,120,0.0,0.0,69,0.00,CLR,,0.00,WeatherDisplay:10.37,2013-09-07 03:20:00,
2013-09-06 22:25:00,71.7,60.6,30.04,ESE,119,0.0,0.0,68,0.00,CLR,,0.00,WeatherDisplay:10.37,2013-09-07 03:25:00,
2013-09-06 22:30:00,71.7,60.6,30.05,ESE,119,0.0,0.0,68,0.00,CLR,,0.00,WeatherDisplay:10.37,2013-09-07 03:30:00,
2013-09-06 22:35:00,71.6,60.5,30.05,ESE,120,0.0,0.0,68,0.00,CLR,,0.00,WeatherDisplay:10.37,2013-09-07 03:35:00,
2013-09-06 22:40:00,71.5,60.4,30.04,ESE,120,0.0,0.0,68,0.00,CLR,,0.00,WeatherDisplay:10.37,2013-09-07 03:40:00,
2013-09-06 22:45:00,71.3,60.2,30.04,ESE,120,0.0,0.0,68,0.00,CLR,,0.00,WeatherDisplay:10.37,2013-09-07 03:45:00,
2013-09-06 22:50:00,71.0,59.9,30.04,ESE,119,0.0,0.0,68,0.00,CLR,,0.00,WeatherDisplay:10.37,2013-09-07 03:50:00,
2013-09-06 22:55:00,70.8,59.7,30.04,ESE,119,0.0,0.0,68,0.00,CLR,,0.00,WeatherDisplay:10.37,2013-09-07 03:55:00,
2013-09-06 23:00:00,70.8,59.3,30.04,ESE,120,0.0,0.0,67,0.00,CLR,,0.00,WeatherDisplay:10.37,2013-09-07 04:00:00,
2013-09-06 23:01:00,70.8,59.3,30.03,ESE,120,0.0,0.0,67,0.00,CLR,,0.00,WeatherDisplay:10.37,2013-09-07 04:01:00,
2013-09-06 23:02:00,70.7,59.2,30.04,ESE,119,0.0,0.0,67,0.00,CLR,,0.00,WeatherDisplay:10.37,2013-09-07 04:02:00,
2013-09-06 23:07:00,70.7,59.2,30.03,ESE,120,0.0,0.0,67,0.00,CLR,,0.00,WeatherDisplay:10.37,2013-09-07 04:07:00,
2013-09-06 23:12:00,70.7,59.2,30.03,ESE,119,0.0,0.0,67,0.00,CLR,,0.00,WeatherDisplay:10.37,2013-09-07 04:12:00,
2013-09-06 23:17:00,70.8,59.3,30.03,ESE,119,0.0,0.0,67,0.00,CLR,,0.00,WeatherDisplay:10.37,2013-09-07 04:17:00,
2013-09-06 23:22:00,70.9,59.4,30.03,SE,128,0.0,0.0,67,0.00,CLR,,0.00,WeatherDisplay:10.37,2013-09-07 04:22:00,
2013-09-06 23:27:00,71.0,59.5,30.02,SE,139,1.2,1.2,67,0.00,CLR,,0.00,WeatherDisplay:10.37,2013-09-07 04:27:00,
2013-09-06 23:32:00,71.1,60.0,30.02,SE,144,0.0,0.0,68,0.00,CLR,,0.00,WeatherDisplay:10.37,2013-09-07 04:32:00,
2013-09-06 23:37:00,71.2,60.1,30.02,SE,146,0.0,0.0,68,0.00,CLR,,0.00,WeatherDisplay:10.37,2013-09-07 04:37:00,
2013-09-06 23:42:00,71.3,60.2,30.03,SE,146,0.0,0.0,68,0.00,CLR,,0.00,WeatherDisplay:10.37,2013-09-07 04:42:00,
2013-09-06 23:48:00,71.2,60.1,30.03,SE,145,0.0,0.0,68,0.00,CLR,,0.00,WeatherDisplay:10.37,2013-09-07 04:48:00,
2013-09-06 23:53:00,71.1,60.0,30.03,SE,145,0.0,0.0,68,0.00,CLR,,0.00,WeatherDisplay:10.37,2013-09-07 04:53:00,
2013-09-06 23:58:00,71.0,59.9,30.03,SE,146,0.0,0.0,68,0.00,CLR,,0.00,WeatherDisplay:10.37,2013-09-07 04:58:00,